• In Italy
  • List of Countries
  • For 7 days
  • Water Temperature
  • Satellite Maps
  • Weather Map
  • Weather Widgets
  • user-avatar
    Login

    Hourly Weather Luanda

    Today, 12 December, Tuesday

    Time Temperature Precipitation Wind Pressure Humidity
    00:00 +27°C° 0 mm 2 mps 753 mmHg 84%
    01:00 +27°C° 0 mm 1 mps 753 mmHg 85%
    02:00 +26°C° 0 mm 1 mps 753 mmHg 86%
    03:00 +26°C° 0 mm 1 mps 753 mmHg 87%
    04:00 +26°C° 0 mm 1 mps 753 mmHg 87%
    05:00 +27°C° 0 mm 1 mps 753 mmHg 85%
    06:00 +27°C° 0 mm 1 mps 753 mmHg 83%
    07:00 +28°C° 0 mm 1 mps 753 mmHg 78%
    08:00 +30°C° 0 mm 1 mps 753 mmHg 68%
    09:00 +32°C° 0 mm 1 mps 753 mmHg 59%
    10:00 +35°C° 0 mm 1 mps 753 mmHg 49%
    11:00 +36°C° 0 mm 2 mps 753 mmHg 47%
    12:00 +37°C° 0 mm 3 mps 752 mmHg 45%
    13:00 +37°C° 0 mm 4 mps 752 mmHg 43%
    14:00 +36°C° 0 mm 5 mps 751 mmHg 47%
    15:00 +35°C° 0 mm 5 mps 751 mmHg 52%
    16:00 +34°C° 0 mm 5 mps 750 mmHg 56%
    17:00 +32°C° 0 mm 5 mps 751 mmHg 63%
    18:00 +30°C° 0 mm 5 mps 751 mmHg 69%
    19:00 +28°C° 0 mm 4 mps 752 mmHg 76%
    20:00 +28°C° 0 mm 4 mps 753 mmHg 77%
    21:00 +28°C° 0 mm 3 mps 753 mmHg 79%
    22:00 +28°C° 0 mm 3 mps 754 mmHg 81%
    23:00 +28°C° 0 mm 3 mps 754 mmHg 81%

    Tomorrow, 13 December, Wednesday

    Time Temperature Precipitation Wind Pressure Humidity
    00:00 +28°C° 0 mm 2 mps 754 mmHg 81%
    01:00 +28°C° 0 mm 2 mps 754 mmHg 80%
    02:00 +28°C° 0.1 mm 2 mps 753 mmHg 81%
    03:00 +28°C° 0.1 mm 2 mps 753 mmHg 81%
    04:00 +28°C° 0.1 mm 2 mps 753 mmHg 81%
    05:00 +28°C° 0 mm 2 mps 753 mmHg 80%
    06:00 +28°C° 0 mm 2 mps 754 mmHg 78%
    07:00 +28°C° 0 mm 2 mps 754 mmHg 77%
    08:00 +30°C° 0 mm 2 mps 754 mmHg 69%
    09:00 +31°C° 0 mm 2 mps 754 mmHg 62%
    10:00 +34°C° 0 mm 2 mps 754 mmHg 54%
    11:00 +35°C° 0 mm 3 mps 754 mmHg 50%
    12:00 +36°C° 0 mm 3 mps 753 mmHg 47%
    13:00 +38°C° 0 mm 4 mps 752 mmHg 43%
    14:00 +37°C° 0 mm 4 mps 752 mmHg 46%
    15:00 +36°C° 0 mm 5 mps 751 mmHg 49%
    16:00 +35°C° 0 mm 5 mps 751 mmHg 52%
    17:00 +33°C° 0.1 mm 5 mps 751 mmHg 59%
    18:00 +30°C° 0.1 mm 5 mps 752 mmHg 67%
    19:00 +28°C° 0.1 mm 5 mps 752 mmHg 74%
    20:00 +28°C° 0 mm 4 mps 753 mmHg 75%
    21:00 +28°C° 0 mm 3 mps 754 mmHg 76%
    22:00 +28°C° 0 mm 3 mps 755 mmHg 77%
    23:00 +28°C° 0 mm 2 mps 754 mmHg 77%

    Day after tomorrow, 14 December, Thursday

    Time Temperature Precipitation Wind Pressure Humidity
    00:00 +28°C° 0 mm 2 mps 754 mmHg 77%
    01:00 +28°C° 0 mm 2 mps 754 mmHg 77%
    02:00 +28°C° 0 mm 2 mps 754 mmHg 79%
    03:00 +27°C° 0 mm 1 mps 754 mmHg 80%
    04:00 +27°C° 0 mm 1 mps 753 mmHg 82%
    05:00 +27°C° 0 mm 1 mps 754 mmHg 81%
    06:00 +28°C° 0 mm 2 mps 754 mmHg 80%
    07:00 +28°C° 0 mm 2 mps 755 mmHg 79%
    08:00 +29°C° 0 mm 2 mps 755 mmHg 72%
    09:00 +31°C° 0 mm 2 mps 755 mmHg 66%
    10:00 +32°C° 0 mm 2 mps 755 mmHg 59%
    11:00 +34°C° 0 mm 2 mps 754 mmHg 54%
    12:00 +36°C° 0 mm 3 mps 754 mmHg 50%
    13:00 +37°C° 0 mm 3 mps 753 mmHg 45%
    14:00 +36°C° 0 mm 4 mps 752 mmHg 49%
    15:00 +35°C° 0 mm 4 mps 751 mmHg 52%
    16:00 +35°C° 0 mm 5 mps 751 mmHg 56%
    17:00 +33°C° 0.3 mm 5 mps 751 mmHg 65%
    18:00 +30°C° 0.3 mm 4 mps 752 mmHg 74%
    19:00 +28°C° 0.3 mm 4 mps 752 mmHg 82%
    20:00 +28°C° 0.1 mm 4 mps 753 mmHg 83%
    21:00 +28°C° 0.1 mm 4 mps 753 mmHg 83%
    22:00 +28°C° 0.1 mm 4 mps 754 mmHg 83%
    23:00 +28°C° 0 mm 3 mps 753 mmHg 84%

    15 December, Friday

    Time Temperature Precipitation Wind Pressure Humidity
    00:00 +27°C° 0 mm 3 mps 753 mmHg 86%
    01:00 +27°C° 0 mm 2 mps 753 mmHg 87%
    02:00 +27°C° 0 mm 2 mps 752 mmHg 88%
    03:00 +27°C° 0 mm 2 mps 752 mmHg 89%
    04:00 +26°C° 0 mm 2 mps 752 mmHg 91%
    05:00 +27°C° 0 mm 2 mps 752 mmHg 88%
    06:00 +27°C° 0 mm 2 mps 753 mmHg 86%
    07:00 +27°C° 0 mm 2 mps 753 mmHg 84%
    08:00 +29°C° 0 mm 2 mps 753 mmHg 79%
    09:00 +30°C° 0 mm 2 mps 753 mmHg 73%
    10:00 +31°C° 0 mm 2 mps 753 mmHg 67%
    11:00 +33°C° 0 mm 3 mps 753 mmHg 61%
    12:00 +35°C° 0 mm 3 mps 752 mmHg 56%
    13:00 +36°C° 0 mm 4 mps 751 mmHg 50%
    14:00 +35°C° 0 mm 4 mps 751 mmHg 53%
    15:00 +34°C° 0 mm 5 mps 750 mmHg 56%
    16:00 +33°C° 0 mm 5 mps 750 mmHg 59%
    17:00 +32°C° 0 mm 5 mps 751 mmHg 65%
    18:00 +30°C° 0 mm 4 mps 751 mmHg 71%
    19:00 +28°C° 0 mm 4 mps 752 mmHg 77%
    20:00 +28°C° 0 mm 3 mps 752 mmHg 78%
    21:00 +28°C° 0 mm 3 mps 753 mmHg 80%
    22:00 +28°C° 0 mm 3 mps 753 mmHg 81%
    23:00 +27°C° 0 mm 2 mps 753 mmHg 82%

    16 December, Saturday

    Time Temperature Precipitation Wind Pressure Humidity
    00:00 +27°C° 0 mm 2 mps 753 mmHg 82%
    01:00 +27°C° 0 mm 2 mps 752 mmHg 82%
    02:00 +27°C° 0 mm 2 mps 752 mmHg 83%
    03:00 +27°C° 0 mm 2 mps 752 mmHg 84%
    04:00 +27°C° 0 mm 2 mps 752 mmHg 84%
    05:00 +27°C° 0.2 mm 2 mps 752 mmHg 85%
    06:00 +27°C° 0.2 mm 2 mps 753 mmHg 86%
    07:00 +27°C° 0.2 mm 2 mps 753 mmHg 86%
    08:00 +28°C° 0.1 mm 2 mps 753 mmHg 79%
    09:00 +30°C° 0.1 mm 2 mps 753 mmHg 71%
    10:00 +31°C° 0.1 mm 2 mps 754 mmHg 64%
    11:00 +32°C° 0 mm 2 mps 753 mmHg 58%
    12:00 +34°C° 0 mm 2 mps 752 mmHg 53%
    13:00 +36°C° 0 mm 3 mps 751 mmHg 47%
    14:00 +35°C° 0 mm 3 mps 751 mmHg 49%
    15:00 +34°C° 0 mm 3 mps 751 mmHg 52%
    16:00 +34°C° 0 mm 4 mps 751 mmHg 54%
    17:00 +32°C° 0 mm 4 mps 751 mmHg 61%
    18:00 +30°C° 0 mm 4 mps 752 mmHg 68%
    19:00 +28°C° 0 mm 4 mps 752 mmHg 76%
    20:00 +28°C° 0 mm 3 mps 753 mmHg 78%
    21:00 +28°C° 0 mm 3 mps 753 mmHg 81%
    22:00 +27°C° 0 mm 3 mps 754 mmHg 83%
    23:00 +27°C° 0 mm 3 mps 753 mmHg 83%

    17 December, Sunday

    Time Temperature Precipitation Wind Pressure Humidity
    00:00 +27°C° 0 mm 2 mps 753 mmHg 84%
    01:00 +27°C° 0 mm 2 mps 753 mmHg 85%
    02:00 +27°C° 0.1 mm 2 mps 753 mmHg 85%
    03:00 +27°C° 0.1 mm 1 mps 753 mmHg 84%
    04:00 +27°C° 0.1 mm 1 mps 753 mmHg 84%
    05:00 +27°C° 0 mm 1 mps 753 mmHg 83%
    06:00 +27°C° 0 mm 1 mps 753 mmHg 81%
    07:00 +28°C° 0 mm 1 mps 754 mmHg 80%
    08:00 +28°C° 0 mm 1 mps 754 mmHg 75%
    09:00 +29°C° 0 mm 1 mps 754 mmHg 71%
    10:00 +30°C° 0 mm 1 mps 754 mmHg 66%
    11:00 +30°C° 0 mm 1 mps 754 mmHg 66%
    12:00 +30°C° 0 mm 2 mps 753 mmHg 65%
    13:00 +30°C° 0 mm 2 mps 753 mmHg 64%
    14:00 +30°C° 0 mm 2 mps 752 mmHg 65%
    15:00 +30°C° 0 mm 2 mps 752 mmHg 66%
    16:00 +30°C° 0 mm 2 mps 751 mmHg 68%
    17:00 +29°C° 0 mm 2 mps 752 mmHg 70%
    18:00 +28°C° 0 mm 3 mps 752 mmHg 73%
    19:00 +28°C° 0 mm 3 mps 752 mmHg 76%
    20:00 +27°C° 0 mm 2 mps 753 mmHg 78%
    21:00 +27°C° 0 mm 2 mps 753 mmHg 79%
    22:00 +27°C° 0 mm 2 mps 754 mmHg 81%
    23:00 +26°C° 0 mm 2 mps 753 mmHg 82%
    Show more